GFSGBSN_prec_radar_045.txt.gz
Reflectivity
16 18 11 -4 6 2 11 -9 5 -20 3 -16 10 12 14 11 -15 -20 -20 -20 -20 -20 -20 -20 -13 -20 -20 -20 -20 -20 -20 -20 -20 -20 -20 -20 -20 -20 -20 -20 -20 -20 -20 -20 -20 -20 -20
11 11 14 12 15 16 15 13 -13 -16 -20 -17 -7 -9 14 10 13 -17 -20 -20 -20 -20 -20 -20 -20 -20 -20 -20 -20 -20 -20 -20 -20 -20 -20 -20 -20 -20 -20 -20 -20 -20 -20 -20 -14 10 -16
14 16 13 14 16 16 8 -0 10 -10 -20 -20 -20 -15 -8 13 9 11 -9 -20 -20 -20 -20 -20 -20 -20 -20 -20 -20 -20 -20 -20 -20 -20 -20 -20 -20 -20 -20 -20 -20 -20 -20 -20 -19 -20 4
4 15 12 12 13 13 16 -2 10 14 -2 -17 1 -20 -4 9 10 6 8 -20 -20 -20 -20 -20 -20 -20 -20 -20 -20 -20 -20 -20 -20 -20 -20 -20 -20 -20 -20 -20 -20 -20 -20 -20 -20 -20 -12
-3 -17 10 18 8 7 11 13 5 5 13 1 -20 -20 -20 -20 -17 4 7 -20 -20 -20 -20 -20 -20 -20 -20 -20 -20 -20 -20 -20 -20 -20 -20 -20 -20 -20 -20 -20 -20 -20 -20 -20 -20 -20 -14
11 12 3 12 14 12 6 13 12 12 8 1 -7 -20 -20 -20 -20 -18 -13 -20 -20 -20 -20 -20 -20 -20 -20 -20 -20 -20 -20 -20 -20 -20 -20 -20 -20 -20 -20 -20 -20 -20 -20 -20 -20 -20 -20
2 11 14 7 9 17 12 16 12 9 12 2 1 -20 -20 -20 -20 9 8 -20 -20 -20 -20 -18 -19 -20 -20 -11 -20 -20 -20 -20 -20 -20 -20 -20 -20 -20 -20 -20 -20 -20 -20 -20 -20 -20 -20
5 -1 -20 -20 -20 14 14 13 10 11 9 10 9 -10 -20 -20 -16 16 -6 -20 -20 -20 -20 -20 -20 -20 -20 -20 -20 -20 -20 -20 -20 -20 -20 -20 -20 -20 -20 -20 -20 -20 -20 -20 -20 -20 -20
-20 -3 6 -18 -20 -20 2 14 12 13 13 15 9 -4 -18 -14 5 3 -20 -20 -20 -20 -20 -20 -20 -20 -18 5 -20 -20 -20 -20 -20 -20 -20 -20 -20 -20 -20 -20 -20 -20 -20 -20 -20 -20 -20
-3 -20 -8 6 -20 -20 -20 7 18 11 15 10 13 8 -20 5 5 -20 -20 -20 -20 -20 -20 -20 -20 -20 -20 -20 -20 -20 -20 -20 -20 -20 -20 -20 -20 -20 -20 -20 -20 -20 -20 -20 -20 -20 -20
-18 9 6 -18 -20 -20 -20 -20 14 20 13 15 15 14 -20 17 -20 -20 -20 -20 -20 -20 -20 -20 -20 -20 5 -20 -20 -20 -20 -20 -20 -20 -20 -20 -20 -20 -20 -20 -20 -20 -20 -20 -20 -20 -20
-0 -7 -2 7 15 -20 -20 -20 -20 20 16 15 15 15 -17 9 -1 -20 -20 -20 -20 -17 -20 -20 -20 -20 -20 -20 -20 -20 -20 -20 -20 -20 -20 -20 -20 -20 -20 -20 -20 -20 -20 -20 -20 -20 -20
4 3 1 5 10 12 -6 -20 -20 -17 22 19 17 17 11 13 -5 -20 -20 -5 2 -14 -20 -20 -20 -20 -20 -20 -20 -20 -20 -20 -20 -20 -20 -20 -20 -20 -20 -20 -20 -20 -20 -20 -20 -20 -20
11 13 9 3 0 12 14 -12 -20 -20 -1 21 20 19 9 -1 -20 -13 -4 -4 -1 -20 -20 -20 0 2 -20 -20 -20 -20 -20 -20 -20 -20 -20 -20 -20 -20 -20 -20 -20 -20 -20 -20 -20 -20 -20
11 15 14 14 16 3 14 12 -20 -20 -11 17 20 13 4 -2 3 -0 4 13 -6 -20 -20 -20 -18 15 -19 -20 -20 -20 -20 -20 -20 -20 -20 -20 -20 -20 -20 -20 -20 -20 -20 -20 -20 -20 -20
-20 4 9 12 14 14 15 13 2 -20 -3 22 10 14 13 -4 3 14 2 -10 -20 -20 -20 -20 -6 10 -3 -9 -20 -20 -20 -20 -20 -20 -20 -20 -20 -20 -20 -20 -20 -20 -20 -20 -20 -20 -20
-20 -19 0 10 16 13 15 18 17 -20 -15 19 10 17 8 -10 22 24 -13 -8 -20 -20 -20 -20 -9 8 -15 -20 -20 -20 -20 -20 -20 -20 -20 -20 -20 -20 -20 -20 -20 -20 -20 -20 -20 -20 -20
20 18 -3 -11 0 15 19 19 26 -20 -18 24 27 5 -4 14 21 18 -4 -20 -20 -20 -20 -20 -20 -9 7 -20 -20 -20 -20 -20 -20 -20 -20 -20 -20 -20 -20 -20 -20 -20 -20 -20 -20 -20 -20
-13 -14 15 9 15 6 23 25 25 -16 -2 24 37 -20 -4 15 19 4 -20 -20 -20 -20 -20 -20 -20 -20 -8 -20 -20 -20 -20 -20 -20 -20 -20 -20 -20 -20 -20 -20 -20 -20 -20 -20 -20 -20 -20
11 -7 16 13 16 16 29 31 25 8 -20 14 30 7 21 22 -12 -20 1 -11 -2 -20 -20 -20 -20 -20 -20 -7 -17 -20 -20 -20 -20 -20 -20 -20 -20 -20 -20 -20 -20 -20 -20 -20 -20 -20 -20
18 15 8 -5 -6 -13 29 32 29 19 5 20 30 19 -14 12 3 -20 -20 -20 -20 -20 -20 -20 -20 -20 -20 -18 -8 -20 -9 -12 -20 -20 -20 -20 -20 -20 -20 -20 -20 -20 -20 -20 -20 -20 -20
19 21 18 8 13 17 29 32 33 28 16 23 29 -20 4 -13 -20 9 10 4 -20 -20 -20 -20 -20 -20 -20 -19 -17 -5 -8 -20 -20 -20 -20 -20 -20 -20 -20 -20 -20 -20 -20 -20 -20 -20 -20
20 18 21 17 8 13 29 36 35 30 21 33 15 -20 -20 -18 -11 -13 -20 4 -20 -20 -20 -20 -20 11 3 2 13 1 -14 -20 -20 -20 -20 -20 -20 -20 -20 -20 -20 -20 -20 -20 -20 -20 -20
20 18 15 20 21 13 30 35 35 27 -5 18 9 -20 -6 12 3 -20 -14 2 -20 -20 -16 -11 -5 4 8 9 9 16 -20 -20 -20 -20 -20 -20 -20 -20 -20 -20 -16 -20 -20 -20 -20 -20 -20
31 38 34 18 17 -8 34 34 36 18 5 10 -19 -20 -15 11 6 -20 -1 -16 11 -20 -20 -1 17 14 11 4 -6 -0 4 -20 -20 -20 -20 -20 -20 -20 -20 -20 -20 -20 -20 -20 -20 -20 -20
9 19 20 17 -5 10 39 30 31 12 8 4 -20 -20 7 -1 12 -17 -19 -20 2 -20 -20 -20 -2 21 12 7 -19 -20 10 3 -20 -20 -20 -20 -20 -20 -20 -20 -20 -20 -20 -20 -20 -20 -20
17 11 16 9 4 26 32 29 28 19 -1 17 -20 -20 -2 7 -6 15 10 -20 -13 -20 -20 -20 -14 14 4 -10 -19 -20 9 -3 -9 -20 -20 -20 -20 -20 -20 -20 -20 -20 -20 -20 -20 -20 -20
13 17 9 -2 25 36 27 32 25 13 5 -1 13 -20 -20 13 19 -3 21 13 -4 -20 -20 -20 -7 6 6 -14 -20 -20 -20 -19 -18 -17 -20 -20 -10 -20 -20 -20 -20 -20 -20 -20 -20 -20 -20
11 14 14 29 26 34 31 28 11 11 19 -17 -4 5 -3 0 37 35 -3 14 -20 -20 -20 -20 -20 -11 11 -7 -20 -20 -20 -20 -20 -20 -20 -20 -20 -20 -20 -20 -20 -20 -20 -20 -20 -20 -20

GFSGBSN_prec_radar_048.txt.gz
Reflectivity
10 9 5 12 5 9 5 13 5 -5 -20 -20 -20 -20 -20 -20 -6 7 8 -20 -20 -20 -20 -20 -20 -20 -20 -20 -20 -20 -20 -20 -20 -20 -20 -20 -20 -20 -20 -20 -20 -20 -20 -20 -20 -20 -20
11 17 10 11 5 6 8 10 12 8 -20 -10 -20 -20 -16 -19 -20 11 9 -20 -20 -20 -20 -20 -20 -20 -20 -20 -20 -20 -20 -20 -20 -20 -20 -20 -20 -20 -20 -20 -20 -20 -20 -20 -17 -7 14
-20 2 7 15 6 11 10 11 9 7 2 -8 -9 -20 -20 2 -20 -9 10 -19 -20 -20 -20 -20 -20 -20 -20 -20 -20 -20 -20 -20 -20 -20 -20 -20 -20 -20 -20 -20 -20 -20 -20 -20 -20 -20 -20
6 3 -8 -20 16 9 5 10 4 7 11 1 5 -20 -20 -20 -12 -20 10 -20 -20 -20 -20 -20 -20 -20 -20 -20 -20 -20 -20 -20 -20 -20 -20 -20 -20 -20 -20 -20 -20 -20 -20 -19 -20 -20 -20
-8 2 -14 -8 4 11 14 8 5 7 -0 0 1 -8 -20 -20 -20 -20 -8 -20 -20 -20 -20 -20 -20 -20 -20 -20 -20 -20 -20 -20 -20 -20 -20 -20 -20 -20 -20 -20 -20 -20 -20 -20 -20 -20 -20
-3 -20 -13 -15 -2 -2 7 19 6 11 3 4 3 4 -20 -20 -20 -20 -20 -20 -20 -20 -20 -20 -20 -20 -20 -20 -20 -20 -20 -20 -20 -20 -20 -20 -20 -20 -20 -20 -20 -20 -20 -20 -20 -20 -20
7 14 8 -20 -20 -20 -20 -10 19 2 9 6 1 8 2 -20 -20 -20 -9 -20 -20 -20 -20 -20 -20 -20 -20 -20 -20 -20 -20 -20 -20 -20 -20 -20 -20 -20 -20 -20 -20 -20 -20 -20 -20 -20 -20
-20 -20 -7 10 4 -20 -20 -20 -15 19 9 8 6 8 10 -19 -20 -15 -20 -20 -20 -20 -20 -20 -20 -20 -20 -20 -20 -20 -20 -20 -20 -20 -20 -20 -20 -20 -20 -20 -20 -20 -20 -20 -20 -20 -20
-8 -20 -20 -20 -20 2 -20 -20 -20 -12 17 5 8 10 11 -19 -4 9 -15 -20 -20 -20 -20 -20 -20 -20 -20 -20 -20 -20 -20 -20 -20 -20 -20 -20 -20 -20 -20 -20 -20 -20 -20 -20 -20 -20 -20
-7 -14 11 5 -20 -20 -18 -20 -20 -20 6 17 6 12 13 -20 8 -20 -20 -20 -20 -20 -20 -20 -20 -20 -20 -20 -20 -20 -20 -20 -20 -20 -20 -20 -20 -20 -20 -20 -20 -20 -20 -20 -20 -20 5
-20 6 -5 -13 -8 -17 -5 -20 -20 -20 -20 10 11 12 15 3 13 0 -20 -20 -20 -20 -20 -20 -20 -20 -20 -20 -20 -20 -20 -20 -20 -20 -20 -20 -20 -20 -20 -20 -20 -20 -20 -20 -20 -20 -20
-0 -7 -2 6 7 -13 -7 -12 -20 -20 -20 -20 10 10 15 10 -0 -20 -20 -20 -20 -20 -20 -20 -20 -20 -20 -20 -20 -20 -20 -20 -20 -20 -20 -20 -20 -20 -20 -20 -20 -20 -20 -20 -20 -20 -20
-4 -0 3 2 5 10 -15 -11 -16 -10 -20 -20 18 -16 14 10 -10 -20 -16 -2 -12 -20 -20 -20 -20 -20 -20 -20 -20 -20 -20 -20 -20 -20 -20 -20 -20 -20 -20 -20 -20 -20 -20 -20 -13 -1 -20
-2 -1 -12 2 2 6 11 -14 -17 -8 10 -20 -10 16 -19 -13 -20 17 13 -8 -20 -20 -20 -20 -20 -20 -20 -20 -20 -20 -20 -20 -20 -20 -20 -20 -20 -20 -20 -20 -20 -20 -20 -19 19 10 -20
3 5 -1 -2 5 9 11 9 1 -17 -0 -20 -20 13 -3 -20 -20 20 26 11 -20 -20 -20 -20 -20 -20 -20 -20 -15 -8 -20 -20 -20 -20 -20 -20 -20 -20 -20 -20 -20 -20 -20 -20 -18 -20 -20
12 7 6 16 7 4 9 16 15 -8 -16 -13 2 18 17 -20 -15 21 31 -17 -20 -20 -20 -20 -20 -20 -20 -20 -18 1 -18 -20 -20 -20 -20 -20 -20 -20 -20 -20 -20 -20 -20 -20 -20 14 -11
25 27 15 12 15 7 4 10 16 9 15 -10 18 18 -5 -20 -18 23 33 -4 -20 -20 -20 -20 -20 -20 -20 -20 -18 10 7 -20 -20 -20 -20 -20 -20 -20 -20 -20 -20 -20 -20 -20 -20 -20 -20
13 6 -11 9 16 -7 3 14 17 14 20 20 14 23 17 24 7 20 20 -20 -20 -20 -20 -20 -20 -20 -20 -20 -20 -9 13 2 -20 -20 -20 -20 -20 -20 -20 -20 -20 -20 -20 -20 -20 -20 -20
-20 -20 -20 -20 14 24 -6 19 16 14 29 23 2 21 2 14 3 0 -20 4 -20 -20 -20 -20 -20 -20 -20 -20 -20 -20 11 6 -20 -20 -20 -20 -20 -20 -20 -20 -20 -20 -20 -20 -20 -20 -20
12 -17 -8 -20 26 28 8 7 22 17 29 27 20 27 24 21 -20 -20 -20 -5 -1 -20 -20 -20 -20 -20 -20 -20 -20 -20 -12 -2 -20 -20 -20 -20 -20 -20 -20 -20 -20 -20 -20 -20 -20 -20 -20
9 16 12 16 -20 26 20 4 17 33 30 29 27 29 22 8 10 -20 -20 -20 -6 -17 -20 -20 -20 -20 -20 -20 -20 -19 7 14 -20 -20 -20 -20 -20 -20 -20 -20 -20 -20 -20 -20 -20 -20 -20
11 4 -6 24 15 9 20 15 14 27 33 33 31 20 15 -20 -20 -15 -20 -20 -20 -20 -20 -20 -20 -20 -20 -20 -11 4 13 -14 -18 -20 -20 -20 -20 -20 -20 -20 -20 -20 -20 -20 -20 -20 -20
15 25 19 22 22 14 17 16 21 24 31 40 19 -14 14 -18 -16 -0 10 -20 -20 -20 -20 -20 -20 6 4 -17 5 -15 7 -1 -16 -20 -20 -20 -20 -20 -20 -20 -20 -20 -20 -20 -20 -20 -20
-20 -5 20 38 30 15 13 -12 24 23 35 38 -14 -7 16 6 17 -18 -20 -20 -20 -20 -20 -20 -20 -5 10 -0 10 9 20 9 -13 -18 -20 -20 -20 -20 -20 -20 -20 -20 -20 -20 -20 -20 -20
-15 7 20 18 35 18 17 11 19 26 31 32 11 -7 11 12 -8 -8 -10 -5 -20 -20 -20 -20 -20 -20 15 -5 10 1 11 12 10 -20 -20 -20 -20 -20 -20 -20 -20 -20 -20 -20 -20 -20 -20
9 -20 16 5 19 19 19 14 -17 36 33 26 -20 -17 -7 9 1 -20 10 4 4 16 16 -20 -20 -13 20 18 -0 -20 -20 7 4 1 -20 -20 -20 -20 -20 -20 -20 -16 -20 -20 -20 -20 -20
-15 22 20 32 15 27 25 15 21 34 35 14 -19 -13 16 12 -20 -20 20 -3 -9 14 9 -11 -10 2 9 14 -8 -20 -20 -19 13 -11 -20 -20 -20 -20 -20 -16 -20 -20 -20 -20 -20 -20 -20
15 17 9 25 17 27 12 -2 19 35 35 14 -12 9 21 23 6 25 12 18 3 23 18 -20 2 0 5 -12 -16 -20 -20 -20 -20 2 -20 -20 -20 -20 -20 -20 -20 -15 -20 -20 -20 -20 -20
8 18 11 9 -1 6 -10 12 34 37 30 -13 13 6 3 8 -5 -12 4 18 20 -7 -20 -16 -20 -20 -4 -7 -20 -20 -19 -20 -20 -19 2 4 -18 -15 -20 -20 -20 -20 -20 -20 -20 -20 -20

GFSGBSN_prec_radar_051.txt.gz
Reflectivity
-20 -1 15 1 8 1 2 1 -1 1 1 -20 -20 -20 -20 -20 -20 -20 -6 -20 -20 -20 -20 -20 -20 -20 -20 -20 -20 -20 -20 -20 -20 -20 -20 -20 -20 -20 -20 -20 -20 -20 -20 -20 -20 -20 -20
-20 -20 -17 -17 14 -14 3 5 6 1 -14 -2 -20 -20 -20 -20 -20 -20 -20 -10 -20 -20 -20 -20 -20 -20 -20 -20 -20 -20 -20 -20 -20 -20 -20 -20 -20 -20 -20 -20 -20 -20 -20 -20 -20 -20 -20
2 4 -20 -20 0 -15 13 5 1 3 -11 2 -6 1 -6 -20 -20 -20 -20 -20 -20 -20 -20 -20 -20 -20 -20 -20 -20 -20 -20 -20 -20 -20 -20 -20 -20 -20 -20 -20 -20 -20 -20 -20 -20 -20 -20
-20 -20 -20 -15 -4 -2 -17 11 -14 -1 2 -13 8 6 0 -20 -20 -20 -20 -20 -20 -20 -20 -20 -20 -20 -20 -20 -20 -20 -20 -20 -20 -20 -20 -20 -20 -20 -20 -20 -20 -20 -20 -9 36 -4 -20
10 2 -18 -20 -20 -9 -20 -20 -11 7 2 3 -20 -7 6 -11 -20 -20 -20 -20 -20 -20 -20 -20 -20 -20 -20 -20 -20 -20 -20 -20 -20 -20 -20 -20 -20 -20 -20 -20 -20 -20 -20 -9 -9 -20 -20
-20 -9 14 7 -20 -20 -20 -20 -20 -20 8 -12 -18 -12 10 8 -20 -20 -20 -20 -20 -20 -20 -20 -20 -20 -20 -20 -20 -20 -20 -20 -20 -20 -20 -20 -20 -20 -20 -20 -20 -20 -20 -20 -20 4 -20
7 2 -20 -20 15 6 -20 -20 -20 -20 -20 12 -1 -15 -2 -2 -20 -20 -7 -20 -20 -20 -20 -20 -20 -20 -20 -20 -20 -20 -20 -20 -20 -20 -20 -20 -20 -20 -20 -20 -20 -20 -20 -20 -20 7 -19
-15 -19 -20 -20 -20 -13 13 -8 -20 -20 -20 -1 9 -11 -18 8 -4 -20 -0 -20 -20 -20 -20 -20 -20 -20 -20 -20 -20 -20 -20 -20 -20 -20 -20 -20 -20 -20 -20 -20 -20 -20 -20 -20 -20 -20 -20
7 7 7 -20 -20 -20 -20 -6 9 -20 -20 -20 4 -2 2 -5 -20 -1 -20 -20 -20 -20 -20 -20 -20 -20 -20 -20 -20 -20 -20 -20 -20 -20 -20 -20 -20 -20 -20 -20 -20 -20 -19 -4 -1 -7 -20
-19 -20 -3 -1 -16 -15 -20 -20 -20 -20 -20 -20 -14 9 -10 5 -12 -20 -20 -20 -20 -20 -20 -20 -20 -20 -20 -20 -20 -20 -20 -20 -20 -20 -20 -20 -20 -20 -20 -20 -20 -20 -20 -20 -18 -19 -4
-0 -1 2 5 12 4 -20 -20 -20 -20 -20 -20 -18 4 -14 -20 -20 -20 -20 -20 -20 -20 -20 -20 -20 -20 -20 -20 -20 -20 -20 -20 -20 -20 -20 -20 -20 -20 -20 -20 -20 -20 -11 -20 -20 -20 1
-19 -18 -8 -6 4 6 -20 -20 -20 -20 -20 -6 -20 -7 14 -10 -17 -20 -19 -20 -6 -20 -20 -20 -20 -20 -20 -20 -20 -20 -20 -20 -20 -20 -20 -20 -20 -20 -20 -20 -20 -20 -20 -20 -20 -20 -9
-20 -20 -20 -20 -15 3 7 -1 -20 -20 6 -20 -20 -17 8 9 -20 -20 3 23 -20 -20 -20 -20 -20 -20 -20 -20 -20 -20 -20 -20 -20 -16 -10 -20 -20 -20 -20 -20 -20 -20 -20 -18 -3 -20 -20
-4 -20 -20 -9 -3 3 5 10 -19 8 -19 13 -20 -20 -10 -17 -20 -20 14 19 -20 -20 -20 -20 -20 -20 -20 -20 -20 -20 -20 -20 -20 -20 -20 -20 -20 -20 -20 -20 -20 -20 -20 -20 24 13 -16
12 9 3 -19 -20 -8 2 3 7 5 0 16 18 -15 -11 19 -20 -2 18 25 -20 -20 -20 -20 -20 -20 -20 -20 -20 -20 -20 -20 -20 -14 6 -20 -20 -20 -20 -20 -20 -9 -20 -20 1 -18 -20
12 11 12 5 -1 -7 3 10 9 7 9 17 18 8 2 -20 20 23 24 17 -19 -20 -20 -20 -20 -20 -20 -15 -19 -20 -20 -20 -20 -5 -17 -20 -20 -20 -20 -20 -20 -20 -7 -20 -20 6 13
15 14 15 15 11 4 12 12 18 17 15 14 22 17 -20 -18 26 23 18 4 -20 -20 -20 -20 -20 -20 -20 -20 -20 -20 -20 -20 -12 4 13 -7 -20 -20 -20 -20 -20 -20 -20 -20 0 -20 8
17 25 16 16 18 15 21 14 13 19 16 28 25 24 -9 19 24 25 7 -20 -20 -20 -20 -20 -20 -20 -20 -20 -20 -20 -20 -20 -17 2 18 9 -16 -20 -20 -20 -20 6 -20 -20 -20 -4 -19
1 -13 -7 -20 0 24 22 27 17 21 20 30 28 15 0 22 15 11 -13 -20 -20 -20 -20 -20 2 -20 -17 -20 -20 -20 -20 -9 -20 3 6 7 -19 -20 -20 -20 -20 -20 -10 -20 -2 -19 -4
9 9 9 -2 -20 -20 -20 11 24 20 24 30 30 21 25 25 -18 2 -20 -20 -20 -20 -20 -20 9 -6 3 -20 -20 -7 -5 -20 -20 -20 -5 7 -6 -20 -20 -20 -20 -20 -20 -20 -20 -4 -20
6 3 10 10 15 -12 -20 -20 22 28 30 30 36 22 7 27 11 -20 -20 -20 -20 -20 -20 -20 -19 32 -20 -20 -20 -20 3 -5 -5 -20 -20 -3 -3 -16 -20 -20 -20 -20 -20 -20 -20 -20 -18
1 6 3 15 2 9 14 -20 19 28 27 33 40 19 12 -20 8 -0 3 -20 -20 -20 -20 -20 -20 -20 26 4 3 -2 -20 -7 9 -20 -20 -9 -6 -18 -20 -20 -20 -20 -20 -0 -20 -20 -20
9 -0 3 8 7 6 12 -20 8 22 28 40 39 9 16 -18 7 9 -20 -20 -20 -20 -20 -20 -20 -15 16 13 28 18 17 -5 17 -20 -20 -20 -20 -20 -20 -20 -20 -20 -20 -20 -20 -20 -20
12 6 -2 6 7 15 10 -13 17 25 24 36 37 -2 19 21 22 -12 -20 -20 -20 -20 -20 -20 -20 -20 -19 15 30 16 -20 -11 -2 7 -20 -20 -17 10 -18 -20 -8 -16 -20 -20 -20 -20 -20
11 -14 4 5 -20 4 11 9 23 37 25 29 -5 19 14 14 7 6 -14 -20 -20 -20 -4 3 -20 -20 -20 2 -20 19 26 24 0 18 -9 -20 -20 -12 15 -20 -20 -20 -20 -20 -20 -20 -20
14 -17 16 13 5 17 35 19 35 25 34 19 6 17 18 16 13 -20 6 4 -20 -5 -6 15 9 6 12 -15 -11 -9 -20 -20 -7 12 22 -20 -20 18 -17 -20 -20 -20 -12 -20 -20 -20 -20
-20 -20 17 17 15 9 25 34 32 28 29 21 2 -12 20 17 5 17 23 -2 -20 3 20 -19 28 14 -20 -7 13 -12 -20 -15 -17 -17 33 -7 3 -2 21 -4 -20 -19 -3 -20 -20 -20 -20
-20 12 3 -19 15 8 34 33 30 27 22 30 -12 -18 25 22 23 17 29 26 -3 -19 16 3 -10 26 22 11 -1 3 -20 -19 -19 -8 5 19 -20 -20 -20 -10 -20 -19 1 -20 -20 -20 -20
13 -17 12 -6 22 24 31 25 19 19 24 23 8 21 23 27 27 3 24 24 -13 4 -20 -20 7 0 -20 -20 -20 -18 -20 -20 -20 -14 -11 15 24 20 -16 -20 -20 8 -3 -20 -20 -20 -20

GFSGBSN_prec_radar_057.txt.gz
Reflectivity
-19 -20 -20 -20 -20 -20 -20 -20 -19 7 7 -18 -3 -9 -20 3 -20 -20 -20 -20 -20 -20 -20 -20 -20 -20 -20 -20 -20 -20 -20 -20 -20 -20 -20 -20 -20 -20 -20 -20 -20 -20 -20 -20 -20 -20 -20
-20 -20 -20 -9 -3 -19 -20 11 7 -18 4 7 -16 -6 -16 1 -3 -20 -20 -20 -20 -20 -20 -20 -20 -20 -20 -20 -20 -20 -20 -20 -20 -20 -20 -20 -20 -20 -20 -20 -20 -20 -20 -20 -20 -20 -20
-6 8 8 -17 -16 -20 -16 -0 10 22 9 -0 12 -1 -18 -19 -20 -20 -20 -20 -20 -20 -20 -20 -20 -20 -20 -20 -20 -20 -20 -20 -20 -20 -20 -20 -20 -20 -20 -20 -20 -20 -20 -20 -20 -20 -20
-3 -3 -3 -3 6 -14 -20 -20 1 0 16 19 6 10 8 -20 -20 -20 -20 -20 -20 -20 -20 -20 -20 -20 -19 -20 -20 -20 -20 -20 -20 -20 -20 -20 -20 -20 -20 -20 -20 -20 -20 -20 -20 -20 -20
-1 3 -6 -1 2 -3 -12 -5 -20 3 -18 -18 6 -5 -20 0 -20 -20 -20 -20 -20 -20 -20 -20 -3 -20 -20 -20 -20 -20 -20 -20 -20 -20 -20 -20 -20 -20 -20 -20 -20 -20 -20 -20 -20 -20 -20
4 -2 3 7 9 -2 0 -13 5 -20 -20 -20 -2 7 -4 -14 -9 -20 -20 -20 -20 -20 -20 -20 -20 -20 -20 -20 -20 -20 -20 -20 -20 -20 -20 -20 -20 -20 -20 -20 -20 -20 -20 -14 -20 -20 -18
-1 7 5 10 9 -20 -20 6 3 -8 -7 -20 -20 -20 -6 6 -2 -3 -11 -20 -20 -20 -20 -20 -20 -20 -20 -20 -20 -20 -20 -20 -20 -20 -20 -20 -20 -20 -20 -20 -20 -20 -20 -20 -20 -20 -11
5 5 -12 9 13 9 9 8 -17 -7 -20 -20 -20 -20 -20 -20 3 1 -1 -6 -18 -20 -20 -20 -20 -20 -20 -20 -20 -20 -20 -20 -20 -20 -20 -20 -20 -20 -20 -20 -20 -15 -20 -20 -20 -14 -20
4 -17 -16 -2 10 2 -18 3 7 -20 -5 -20 -18 -20 -20 -20 -20 -19 -17 2 -15 -12 -20 -20 -20 -20 -20 -20 -20 -20 -20 -20 -20 -20 -20 -20 -20 -20 -20 -20 -20 -20 -20 -20 -20 -20 -20
-15 -19 9 -20 4 -10 12 14 -10 -7 8 2 -20 -20 -20 -20 -20 -20 -20 -20 -19 -20 -20 -20 -13 -20 -20 -20 -20 -20 -20 -20 -20 -20 -20 -20 -20 -20 -20 -20 -20 -20 -20 -20 -20 -20 -20
-18 -14 12 -14 -14 -1 10 15 -4 5 -13 -20 15 -20 -20 -20 -20 -20 -20 -20 -20 -20 -20 -20 -20 -20 -20 -20 -20 -20 -20 -20 -20 -20 -20 -20 -20 -20 -20 -20 -20 -20 -20 -20 -20 -20 -20
10 -11 -10 -20 1 13 12 15 6 -19 12 -2 -18 -5 -12 -19 -20 -20 -20 -20 -17 -17 -20 -20 -20 -20 -20 -20 -20 -15 -20 -20 -20 -20 -20 -20 -20 -20 -20 -20 -20 -20 -20 -20 -20 -20 -20
-19 -17 -14 -0 7 -4 -13 12 10 14 5 10 -7 -20 17 -20 -20 -20 -16 -3 -4 -20 -20 -20 -20 -20 -16 -19 -20 -20 -20 -20 -20 -20 -20 -20 -20 -20 -20 -20 -20 -20 -20 -20 -20 -20 -20
-6 0 -16 6 -8 -16 -2 1 10 6 10 8 16 -18 -20 -20 -20 -20 -11 16 10 -20 -20 -20 -20 -20 -20 -20 -20 -20 -20 -20 -20 -20 -20 -20 -20 -20 -20 -20 -20 -20 -20 -20 -20 -20 -20
10 9 11 14 12 12 8 12 15 12 14 17 24 18 14 -20 -20 -10 14 18 -20 -20 -20 -20 -20 -20 -20 -20 -20 -20 -20 -20 -20 -20 -20 -20 -20 -20 -20 -20 -20 -20 -13 -20 -20 -20 -20
13 12 15 11 12 12 12 16 16 18 17 19 11 19 5 -20 -20 8 26 14 -20 -20 -20 -20 -20 -20 -20 15 -11 -20 -20 -20 -20 -20 -20 -20 -20 -20 -20 -20 -20 -20 -16 -20 -20 -7 -13
10 8 11 12 12 10 10 11 17 17 17 18 24 26 11 -19 21 16 -3 -14 -20 -20 -20 -20 -20 -20 -20 -20 15 32 -19 -20 -20 -20 -20 -20 -20 -20 -20 -20 -20 -20 -20 -20 -18 -20 -15
-16 7 7 5 -15 -20 2 10 12 19 16 28 31 30 16 6 28 4 -19 -20 -20 -20 -20 -20 -20 -20 -20 -20 -6 -4 10 -11 -20 -20 -20 -20 -20 -20 -20 -20 -18 -20 -20 -20 -20 -20 -20
2 6 7 6 -5 -1 -1 12 17 18 20 28 33 28 14 6 13 -20 -5 -20 -20 -20 -20 -20 -20 -20 -20 -20 -20 -20 -20 -19 -3 19 -17 -20 -17 -20 -20 -20 5 -20 -20 -20 -20 -20 -20
8 9 3 9 7 -9 7 12 4 -5 18 26 34 30 32 22 -14 -20 -20 -20 -20 -20 -20 -20 -20 -20 -20 -20 -20 -20 -20 7 12 -20 6 12 -4 -20 -20 -20 -20 -20 -20 -20 -20 -20 -20
11 9 7 4 2 2 8 15 12 3 26 29 38 25 13 31 2 -20 -20 -20 -20 -18 -20 -20 -20 -20 -20 -20 -20 -20 -20 -19 15 -20 5 7 10 -20 -20 -12 -16 -20 -20 -14 -20 -20 -20
8 7 8 9 0 20 9 10 -1 -9 14 34 36 27 6 -20 1 4 -20 -20 -20 -20 -20 -20 -20 -20 -20 -20 -20 -20 -20 -18 26 11 -20 19 -5 -20 -20 -20 3 2 -20 -20 -20 -20 -20
9 14 16 18 17 16 15 16 11 -14 12 37 39 13 -20 -15 -19 8 -8 -20 -20 -20 -20 -20 -20 -20 -20 -20 -20 -20 -20 -10 9 30 -1 -11 -1 -3 -20 -20 7 -3 -20 -19 -19 -20 -20
-2 -7 -8 -5 -8 9 3 -20 -19 -20 13 24 38 21 13 24 -5 -8 -14 -20 -20 -5 -18 -20 -19 -20 -20 -20 3 3 -20 -20 7 -15 25 28 -20 -10 -20 -15 20 9 -16 -20 -10 -20 -20
-2 -7 -2 -16 -19 5 1 4 -20 -11 14 17 37 30 17 28 -0 -20 -20 -20 -20 -20 -20 -20 -20 -20 -20 -20 -20 17 8 -20 -20 14 7 40 10 4 6 9 -19 -14 -20 -20 -20 -20 -20
5 10 9 13 14 11 14 -14 -1 -19 10 23 29 35 35 32 31 -9 -20 -20 -20 -20 -20 -20 -20 -20 -20 -20 -19 -20 -19 -20 -19 9 4 39 28 -19 -18 -13 -13 -20 -20 -19 -20 -20 -20
9 9 12 12 14 12 7 19 16 -2 -13 11 14 24 32 42 27 -2 -18 -20 -20 -20 -16 -20 -20 -20 -19 -20 -20 -7 -11 -20 -18 7 -20 25 41 1 -12 7 -11 -20 -20 10 7 -8 -11
9 6 -0 -20 -8 14 -9 13 21 29 19 23 10 -6 4 19 33 -5 11 -20 -20 -19 -16 -20 3 2 8 -20 -20 -20 -20 -6 -15 -20 -20 16 28 23 26 17 -2 -20 -20 8 5 -20 13
-13 -20 -20 -20 -20 -16 9 -17 14 21 15 29 34 19 -0 22 36 -5 2 -8 38 3 3 -20 2 -20 -20 -20 -20 -20 3 -20 -20 -20 -20 12 4 0 10 -1 -16 -20 -19 -7 -9 -19 11

GFSGBSN_prec_radar_060.txt.gz
Reflectivity
-18 -20 -20 -20 -20 -20 -20 -20 -20 -20 -20 -20 -20 -20 -20 -0 -16 -15 -18 -20 -20 -20 -20 -20 -20 -16 -20 -20 -19 -20 -20 -20 -20 -20 -20 -20 -20 -20 -20 -20 -20 -20 -20 -20 -20 -20 -20
-11 -8 11 8 -4 -20 -20 -20 -20 -20 -20 -20 -20 -20 -20 -20 -17 -20 -20 -20 -20 -20 -20 -20 -20 6 -20 -20 -20 -20 -20 -20 -20 -20 -20 -20 -20 -20 -20 -20 -20 -20 -20 -20 -20 -20 -20
-18 -2 3 -20 -18 2 -2 4 -20 -20 -20 -20 -20 -19 12 10 -20 -20 -20 -20 -20 -20 -20 -20 -20 8 -6 -20 -20 -20 -20 -20 -20 -20 -20 -20 -20 -20 -20 -20 -20 -20 -20 -20 -20 -20 -20
8 1 -1 3 -2 -20 -20 2 10 -4 -10 -20 -20 -20 -4 22 9 -17 -20 -20 -20 -20 -20 -20 -20 9 -20 -20 -20 -20 -20 -20 -20 -20 -20 -20 -20 -20 -20 -20 -20 -20 -20 -20 -20 -20 -20
16 8 3 -4 -12 -20 -20 -18 -20 -8 -11 -18 -20 -20 -20 -20 7 6 -12 -0 -20 -20 -20 -20 -14 -20 -20 -20 -20 -20 -20 -20 -20 -20 -20 -20 -20 -20 -20 -20 -20 -20 -20 -20 -20 -20 -20
16 5 3 3 -2 3 -8 -10 -20 -20 -18 -20 -20 -20 -20 -15 2 10 8 -3 -18 -20 -20 -20 -20 -20 -20 -20 -20 -20 -20 -20 -20 -20 -20 -20 -20 -20 -20 -20 -20 -20 -20 -20 -20 -20 -20
9 14 4 6 -20 -20 11 -13 -10 -20 -20 -11 -20 -20 -20 -20 -4 11 10 -13 -9 -19 -20 -20 -20 -20 -20 -20 -20 -20 -20 -20 -20 -20 -20 -20 -20 -20 -20 -20 -20 -20 -20 -20 -20 -20 -20
13 16 9 2 -11 -2 -5 10 6 8 -18 -20 -19 -20 -14 -18 -20 6 1 7 -17 -20 -20 -20 -20 -20 -20 -20 -20 -20 -20 -20 -20 -20 -20 -20 -20 -20 -20 -20 -20 -20 -20 -20 -20 -20 -20
14 17 4 1 8 10 10 9 -20 -5 6 -11 -4 -8 -15 -20 -6 -20 -6 -7 17 4 -20 -20 -20 -20 -20 -20 -20 -20 -20 -20 -20 -20 -20 -20 -20 -20 -20 -20 -20 -20 -20 -20 -20 -20 -20
4 7 11 -8 10 1 -13 8 -20 -18 -16 -10 6 10 -14 -16 -17 -17 -20 -20 -20 -11 -17 -20 -15 -20 -20 -20 -20 -20 -20 -20 -20 -20 -20 -20 -20 -20 -20 -20 -20 -20 -20 -20 -20 -20 -20
10 15 10 -11 -20 -19 9 15 -20 -15 13 -19 -20 -20 7 -20 -20 -20 -19 -20 -20 -20 -20 -20 -19 -20 -20 -20 -20 -20 -20 -20 -20 -20 -20 -20 -4 -20 -20 -20 -20 -20 -20 -20 -20 -20 -20
-11 -18 -6 -20 -20 -0 9 -18 13 13 10 8 3 -20 -5 -19 -20 -20 -20 -20 -20 -20 -20 -20 -20 -20 -20 -20 -20 -20 -20 -20 -20 -20 -20 -20 -20 -20 -20 -20 -20 -20 -20 -20 -20 -20 -20
8 -20 -20 -11 -20 -20 7 3 0 11 13 8 -18 -8 14 -20 -20 -20 -20 -14 -6 -20 -20 -20 -20 -20 -1 -7 -17 -20 -20 -20 -20 -20 -20 -20 -18 -0 -20 -20 -20 -20 -20 -20 -20 -20 -20
-18 -15 -18 -20 -9 4 -14 -15 9 15 16 21 14 12 -4 -20 -20 -20 -16 -2 -15 -20 -20 -20 -20 -20 -20 -8 -7 -9 -20 -20 -20 -20 -20 -20 -20 -20 -20 -20 -20 -20 -20 -20 -20 -20 -20
3 -1 -11 -20 -18 11 16 18 5 18 16 11 17 14 13 -20 -20 -20 5 10 -20 -20 -20 -20 -20 -20 -20 -20 -19 -18 -14 -20 -20 -20 -20 -20 -20 -19 -20 -20 -20 -20 -20 -20 -20 -20 -20
-10 -5 -18 -16 -2 1 17 17 13 19 16 18 15 13 -10 -20 -20 -6 2 8 -20 -20 -20 -20 -20 -20 -20 -20 -20 -20 -20 -20 -20 -20 -20 -20 -20 -20 -20 -20 -20 -20 -20 -20 -20 -20 -20
-20 -12 -20 -8 1 11 17 16 15 15 15 20 28 30 0 -14 2 12 2 -12 -20 -20 -20 -20 -20 -20 -20 -20 -20 -17 -20 -20 -20 -20 -20 -20 -20 -20 -20 -20 -20 -20 -20 -20 -20 -20 -20
-20 -20 9 12 4 4 14 12 15 1 17 33 35 31 -12 14 24 3 -20 -20 -20 -20 -20 -20 -20 -20 -20 -20 -11 -20 -20 -20 -20 -20 -20 -20 -20 -20 -20 -20 -20 -20 -20 -20 -20 -20 -20
-4 8 9 5 7 9 10 14 17 20 27 33 37 31 7 -20 -20 -17 -20 -20 -20 -20 -20 -20 -20 -20 -20 -20 -20 -20 -20 1 -20 -20 -10 -20 6 -18 -20 -20 -20 -3 -20 -20 -20 -20 -20
3 10 16 16 14 10 13 12 22 29 30 34 36 28 32 2 -20 -20 -20 -20 -8 -20 -20 -20 -20 -20 -20 -20 -20 -20 -20 -20 -8 -13 -5 23 -20 -14 -20 -20 -20 -20 -20 -20 -20 -20 -20
9 12 15 14 11 13 13 14 25 29 30 35 41 24 2 25 3 -14 -20 -20 -20 -6 -15 -20 -20 -20 -20 -20 -20 -20 -20 -20 9 21 2 20 -10 -20 -20 -20 -19 3 -9 -5 -20 -20 -20
14 15 15 14 19 23 20 24 25 25 28 36 36 24 5 -20 -10 2 -2 -20 -20 -20 0 -2 -20 -20 -20 -20 -20 -20 -20 -20 -20 14 23 29 20 -20 -20 -20 -20 -20 -20 -20 -20 -17 -20
19 19 20 22 24 26 25 24 25 26 33 39 33 25 -5 3 -2 5 -17 -20 -16 -20 -20 -20 -20 -20 -20 -20 -20 -20 -20 -20 -11 9 6 15 40 4 -20 -20 -1 9 -19 -20 -20 -12 -20
24 23 24 26 26 23 20 18 16 31 36 30 26 23 16 20 -4 -5 -20 -20 -20 -20 -18 -20 -20 -20 -20 -20 -20 -20 -20 -20 -20 -20 -0 2 28 31 20 -20 16 3 -9 -20 -20 -20 -20
16 15 -15 -3 6 6 -6 19 32 30 31 32 30 26 24 25 6 -20 -20 -20 -20 -20 -20 -20 -20 -20 -20 -20 -20 -20 -20 -20 -20 -20 -20 -20 24 26 22 13 -16 -20 -20 -20 -20 -20 -13
-20 -18 10 -3 14 -10 10 1 -20 21 31 34 29 26 35 29 19 -20 -20 -20 -20 -20 -20 -20 -20 -20 -20 -20 -20 -20 -20 -20 -20 -7 -18 -10 19 23 22 21 24 -20 -20 -20 -20 -20 -17
3 1 -0 4 16 14 0 -12 -12 -20 -1 27 35 25 27 34 11 -20 -20 -20 -20 -20 -20 -20 -20 -20 -20 -20 -20 -20 -20 -20 -20 -20 -20 -14 1 8 16 17 18 -20 -20 -20 -20 -19 -12
7 12 8 3 8 13 17 15 -7 14 4 19 17 24 26 33 19 4 -10 -20 -20 -20 -20 -20 -20 -20 -20 -19 -20 -20 -20 -20 -20 -20 -20 -16 -20 -20 -2 6 31 3 -20 5 -16 -20 -2
11 -18 -6 8 -20 -20 -3 -6 -4 18 27 21 14 11 14 30 27 19 21 21 -20 -20 -20 -20 -20 -20 -20 -20 -20 -20 -20 -20 -20 -18 -20 -20 -20 -8 5 12 28 24 6 -12 -20 -20 -20

GFSGBSN_prec_radar_063.txt.gz
Reflectivity
11 12 13 13 10 -0 -16 -20 -20 -20 -20 -20 -20 -20 -20 -20 -20 -20 -20 -20 -20 -20 -20 -20 -20 -20 -19 -20 -20 -20 -20 -20 -20 -20 -20 -20 -20 -20 -20 -20 -20 -20 -20 -20 -20 -20 -20
-6 -20 -17 -20 -20 -10 -7 -10 -11 -20 -1 -20 -20 -20 -20 -20 -20 -20 -20 -20 -20 -20 -20 -20 -20 -20 -19 -20 -20 -20 -20 -20 -20 -20 -20 -20 -20 -20 -20 -20 -20 -20 -20 -20 -20 -20 -20
10 10 4 6 5 -4 -20 -20 -20 -20 -4 -20 -20 -20 -20 -20 -20 -20 -20 -20 -20 -20 -20 -20 -20 -12 -20 -20 -20 -20 -20 -20 -20 -20 -20 -20 -20 -20 -20 -20 -20 -20 -20 -20 -20 -20 -20
14 14 17 7 6 7 6 -20 6 -20 -20 -20 7 -20 -20 -19 -4 -20 -20 -16 -11 -20 -20 -20 -20 1 -20 -20 -20 -20 -20 -20 -20 -20 -20 -20 -20 -20 -20 -20 -20 -20 -20 -20 -20 -20 -20
14 14 12 8 7 6 6 -5 -18 -20 -20 -20 -20 -19 -1 -8 -10 -20 -20 -20 -3 -13 -20 -20 -18 -20 -20 -20 -20 -20 -20 -20 -20 -20 -20 -20 -20 -20 -20 -20 -20 -20 -20 -20 -20 -20 -20
10 15 12 6 4 7 -20 -20 -20 -20 -20 -6 -11 5 -17 -18 5 8 -20 -20 -20 -20 -20 -20 -5 -20 -20 -20 -20 -20 -20 -20 -20 -20 -20 -20 -20 -20 -20 -20 -20 -20 -20 -20 -20 -20 -20
15 12 13 8 3 4 -20 -20 -20 -1 -20 -10 -11 -2 -7 -19 -20 -15 -20 -20 -20 -20 -20 -20 -20 -20 -20 -20 -20 -20 -20 -20 -20 -20 -20 -20 -20 -20 -20 -20 -20 -20 -20 -20 -20 -20 -20
10 10 11 10 6 4 3 10 -14 12 -20 -19 7 -5 -20 -20 -20 -20 -20 -20 -20 -20 -15 -20 -20 -20 4 -18 -20 -20 -20 -20 -20 -20 -20 -20 -20 -20 -20 -20 -20 -20 -20 -20 -20 -20 -20
12 13 12 13 5 6 9 -13 4 -20 -20 -20 -20 8 -8 -20 -17 -19 -20 -20 -18 -12 -20 -20 -20 -20 13 4 -20 -20 -20 -20 -20 -20 -20 -20 -20 -20 -20 -20 -20 -20 -20 -20 -20 -20 -20
-6 15 8 -19 -14 9 -6 -20 9 -20 -20 -20 -20 -20 -20 -2 -20 -18 -10 -20 -20 -15 -20 -20 -20 -20 -4 1 -17 -20 -20 -20 -20 -20 -20 -20 -20 -20 -20 -20 -20 -20 -20 -20 -20 -20 -20
14 10 10 1 13 -20 -20 8 -18 -20 13 -20 9 -14 -17 6 0 -17 -20 -20 -20 -20 -20 -18 1 -20 -20 -20 -20 10 -3 -20 -20 -20 -20 -20 -20 -20 -20 -20 -20 -20 -20 -20 -20 -20 -20
15 7 2 -5 -20 -20 -20 -17 15 -9 -20 -20 2 5 -1 -2 -20 -18 -20 -10 -2 -9 -14 -20 -20 -20 -16 -20 -20 -13 6 -13 -20 -20 -20 -20 -20 -20 -20 -20 -11 -18 -20 -20 -20 -20 -20
15 15 3 -7 -20 -20 -20 16 16 -20 -4 -16 6 10 -17 -20 -20 -20 -20 -20 11 -9 -20 -9 -20 5 -9 -20 -20 -20 -19 -18 -17 -20 -20 -20 -20 -20 -20 -20 -20 -20 -20 -20 -20 -20 -20
9 13 11 9 9 3 -20 -20 -20 -17 1 1 7 7 -18 -18 -20 -20 -20 -3 8 -20 -20 -20 -20 -20 -8 3 -13 -20 -20 -20 -20 -20 -20 -20 -20 -20 -20 -20 -20 -20 -20 -20 -20 -20 -20
9 13 10 -20 -20 -20 -20 -20 13 -1 1 12 14 13 -16 -20 -20 -20 -17 1 -3 -20 -20 -20 -20 -20 -20 -20 2 -11 -20 -20 -20 -20 -20 -20 -20 -5 -15 -14 7 2 -20 -20 -20 -20 -20
7 8 -0 -10 -8 -5 -20 -12 -14 12 12 8 19 20 -9 -20 -20 -20 8 -12 -4 -20 -20 -20 -20 -20 -20 -20 -20 -20 -20 -20 -20 -20 -20 -20 -20 -11 2 -20 -20 -20 -20 -20 -20 -20 -20
9 5 3 -5 -20 -20 -20 3 -20 10 11 22 27 31 9 -20 -11 2 -12 1 -13 -20 -20 -20 -20 -20 -20 -20 -20 -20 -20 -20 -20 -20 -20 -20 -20 -20 -15 0 -20 -20 -20 -20 -20 -20 -20
6 6 -18 -20 -20 -20 -20 -19 -9 -19 21 27 32 32 15 -16 20 -9 -20 -19 -20 -20 -20 -20 -20 -20 -20 -20 -20 -20 -20 -20 -20 -20 -20 -20 -20 -20 -5 -6 -19 -20 -20 -20 -18 -20 -20
6 8 0 -0 -20 -20 -19 -15 1 -6 15 31 34 32 26 -16 2 -11 -20 -20 -20 -20 -20 -20 -20 -20 -20 -20 -20 -20 -20 -4 5 -6 -20 -20 -20 -20 -20 -20 -20 -20 -20 -20 -4 -20 -20
-20 -20 -15 5 -4 1 7 10 18 3 13 31 34 27 33 25 -20 -20 -20 -20 -17 -20 -20 -20 -20 -20 -20 -20 -20 -20 -20 -6 -9 5 -20 -17 -20 6 4 -20 -20 -20 -20 -20 -20 -20 -20
5 -9 -1 -3 7 12 11 18 14 7 18 33 41 28 16 18 12 -20 -20 -20 -20 -20 -18 -20 -20 -20 -20 -20 -20 -20 -20 -20 9 2 -20 -20 -10 -18 -20 -20 -20 -20 -20 -20 -20 -20 -20
10 13 12 17 7 12 11 12 12 12 29 36 32 24 20 -20 0 -10 -20 -20 -20 -20 -20 -20 -20 -20 -20 -20 -20 -20 -20 -20 -20 -10 -2 -20 -20 -20 -10 0 -14 -20 -20 -20 -20 -20 -20
13 16 14 13 13 13 14 14 12 15 31 40 36 18 -6 -4 -8 -6 -20 -20 -19 -20 -19 -20 -20 -20 -20 -20 -20 -20 -20 -20 -20 3 -20 -20 -1 -19 -20 -11 24 -20 -20 -20 -20 -20 -20
15 16 18 20 19 16 15 13 13 14 30 37 30 16 13 11 -20 -20 -20 -20 -20 -16 -20 -20 -20 -20 -20 -20 -20 -5 -5 -9 -20 -20 14 -5 -8 1 -16 -3 17 -17 -20 -20 -20 -20 -20
14 13 17 19 19 19 21 21 19 24 31 34 32 13 -1 -10 3 -17 1 -20 -20 -20 -20 -20 -20 -20 -20 -20 -20 -20 -20 -20 -18 -15 12 -20 -20 -7 3 -17 3 -1 -6 -12 -20 -20 -20
22 25 23 26 27 24 22 23 24 25 31 35 34 26 9 2 15 16 -2 -3 -20 -20 -20 -20 -20 -0 -20 -20 -15 -11 -20 -20 -20 -12 -17 -1 7 -12 -20 -13 -20 -20 6 14 1 21 -20
3 -20 4 16 15 -7 -20 11 18 26 32 35 38 23 21 27 22 24 12 -1 -20 -20 -20 -20 -10 -8 -20 -20 -20 -7 -12 -20 -20 -15 -20 -1 10 3 -20 -10 -20 -19 7 2 4 -6 -19
0 -10 -1 -12 4 13 14 17 18 22 30 37 37 28 26 33 30 25 13 22 -20 -20 -20 -20 0 -7 -20 -20 -17 -20 -20 -20 -20 -20 -20 -20 -7 -20 -20 -20 -20 -11 11 12 18 17 -8
-8 16 14 -1 18 19 14 16 14 -16 16 27 32 24 10 25 14 -9 19 13 15 6 -19 -20 -20 -20 -20 -20 -20 -20 -20 -20 -20 -20 -20 -12 -20 -20 -20 -20 -13 -4 4 1 30 25 17

GFSGBSN_prec_radar_066.txt.gz
Reflectivity
-20 -6 -15 6 6 -7 5 -5 11 -20 -16 -20 -20 -20 -20 -20 -20 -20 -20 -20 -20 -20 -20 -20 -20 -20 -20 -20 -20 -20 -20 -20 -20 -20 -20 -20 -20 -20 -20 -20 -20 -20 -20 -20 -20 -20 -20
12 8 5 -20 -3 -5 -20 -13 -20 -20 -20 -20 -20 -20 -20 -20 -20 -20 -20 -20 -20 -20 -20 -20 -20 -20 -20 -18 -11 -20 -20 -20 -20 -20 -20 -20 -20 -20 -20 -20 -20 -20 -20 -20 -20 -20 -20
13 16 15 15 11 5 -8 -17 -20 -20 -20 -20 -20 -20 -20 -20 -20 -20 -20 -20 -20 -20 -20 -20 -20 -20 -20 4 -5 -20 -20 -20 -20 -20 -20 -20 -20 -20 -20 -20 -20 -20 -20 -20 -20 -20 -20
11 15 -0 15 12 5 1 3 -20 -20 -20 -20 -20 -20 -20 -20 -20 -20 -20 -20 -20 -20 -20 -20 -20 -17 -20 2 -1 -20 -20 -20 -20 -20 -20 -20 -20 -20 -20 -20 -20 -20 -20 -20 -20 -20 -20
14 15 15 12 13 15 11 6 1 -3 -8 -20 -20 -20 -20 -20 -20 -20 -20 -20 -20 -20 -20 -20 -20 -20 -20 -1 -2 -20 -20 -20 -20 -20 -20 -20 -20 -20 -20 -20 -20 -20 -20 -20 -20 -20 -20
10 19 14 14 15 10 2 8 -12 -13 -20 -20 -19 8 -20 -20 -20 -20 -20 -20 -20 -20 -20 -20 -5 -20 -20 5 -1 -20 -20 -20 -20 -20 -20 -20 -20 -20 -20 -20 -20 -19 -20 -20 -20 -20 -20
14 5 8 -18 7 11 4 7 6 9 10 -20 -20 -20 -20 -20 -20 -20 -20 -2 -20 -3 11 -20 -20 -20 -20 -20 10 -19 -20 -20 -20 -20 -20 -20 -20 -20 -20 -20 -20 -20 -20 -20 -20 -20 -20
11 12 11 12 12 12 13 1 -13 -20 4 -20 -20 -20 -20 -20 -20 -20 -20 5 12 -20 -20 -20 -20 -20 -11 13 5 7 -20 -20 -20 -20 -20 -20 -20 -20 -20 -20 -20 -20 -20 -20 -20 -20 -20
15 11 12 9 16 9 6 9 10 -20 5 -18 -20 -20 -20 -20 -20 -20 -20 -20 -10 -20 -18 -0 -20 -20 -20 19 -7 1 8 -20 -20 -20 -20 -20 -20 -20 -20 -20 -20 -20 -20 -20 -20 -20 -20
14 12 8 14 12 7 11 -9 -20 -6 -14 -14 -20 -20 -20 -18 -20 -20 5 -14 -20 -20 -19 -20 -10 -20 -20 -20 -18 2 15 -20 -20 -20 -20 -20 -20 -20 -20 -20 -20 -20 -20 -20 -20 -20 -20
14 10 -2 11 2 -19 -3 1 -20 10 -20 -14 4 -20 1 3 -20 -20 -20 -8 -20 -20 -20 -20 -20 -20 -20 -20 -20 -0 20 6 -20 -20 -20 -20 -20 -20 -20 -20 -20 -20 -20 -20 -20 -20 -20
13 6 11 12 9 11 0 -20 -20 -13 -20 -20 -20 -13 6 -19 -13 -20 -20 -20 -15 -17 -20 -20 -20 -20 -20 -20 -20 -20 9 -2 -19 -20 -20 -20 -20 -20 -20 -20 -20 -20 -20 -20 -20 -20 -20
6 14 14 -8 6 -20 -20 -20 -20 1 -20 -20 -0 5 20 -20 -20 -20 -20 -20 -10 -20 -20 -20 -20 -20 -20 -20 -20 -20 -19 -7 -12 10 -20 -20 -20 -20 -20 -20 -20 -20 -20 -20 -20 -20 -20
22 22 11 14 13 -20 5 -20 -20 8 -20 -11 -16 18 -16 -16 -20 -20 -20 -20 11 -20 -2 -7 -17 -20 19 -20 -20 -13 -20 -20 -20 -0 18 -17 -20 -20 -20 -20 -15 -20 -20 -20 -20 -20 -20
15 7 13 13 12 1 -7 -19 -20 2 -13 -20 -10 -4 3 -20 -20 -20 -20 -20 -17 -19 -20 -20 -20 -20 -20 -0 -19 -20 -20 -20 -20 -20 -9 -18 -20 -13 -20 -6 13 -0 -20 -20 -20 -20 -20
13 16 18 18 1 -11 -20 -20 -20 -20 -20 -20 12 20 -0 -20 -4 -19 -14 -20 -6 -20 -20 -20 -20 -20 -20 -19 -14 -13 -20 -20 -20 -20 -20 -20 -20 -3 -9 -5 5 -5 -20 -17 -20 -20 -20
19 18 15 -14 16 -20 -20 -20 -18 -20 -10 19 14 22 17 -12 9 23 -3 -20 -20 -20 -20 -20 -20 -20 -20 -20 -15 -20 -20 -20 -20 -20 -20 -20 -20 -20 -20 -20 -20 -20 -20 -20 -20 -20 -20
16 12 4 -20 -20 -20 -20 -20 -17 -20 -7 22 26 29 23 -20 28 23 1 -20 -20 -20 -20 -20 -20 -20 -20 -20 -20 -20 -4 -20 -20 -20 -20 -20 -20 -20 -20 -20 -20 -20 -20 -0 -9 -20 -20
13 -6 -20 -20 -7 -20 -20 -20 -20 -20 11 16 25 26 30 24 10 11 -16 -20 -20 -20 -20 -20 -20 -20 -20 -20 -20 -20 -20 -18 -20 -20 -18 -20 -20 -20 -20 -20 -20 -20 -20 -20 -20 -20 -20
3 -6 -20 -20 -20 -0 -18 -20 -20 2 -8 24 34 19 34 32 3 -10 -17 -10 -20 -20 -20 -20 -20 -20 -20 -20 -20 -20 -20 -20 -20 -20 -20 -20 -9 16 7 -18 -20 -20 -20 -20 -20 -20 -20
-4 -20 -20 2 3 -3 -7 -3 -2 2 -20 26 31 30 9 22 23 -14 -20 -8 -20 -6 -20 -20 -20 -20 -20 -20 -20 -20 -20 -17 -20 -20 -20 -20 -20 -14 -1 -20 -20 -20 -20 -20 -20 -20 -20
-18 6 -20 -20 -20 -20 2 15 -12 16 -11 29 31 28 20 34 -5 9 0 2 -20 -20 -6 -20 -20 -20 -20 -20 -20 -20 -20 -20 -20 -20 -19 -1 -20 -20 -20 1 -20 -20 -20 -20 -20 -20 -20
-19 -8 10 9 15 15 15 16 18 -3 14 35 30 21 26 12 -5 10 10 -14 -20 -5 -20 -20 -20 -3 -20 -16 -20 -20 -20 -20 -20 -20 -20 -20 -7 -20 -20 -8 -9 -20 -20 -20 -20 -20 -20
13 17 17 17 20 17 17 18 12 6 19 27 24 11 20 21 1 -10 -2 -20 -20 -20 -13 8 12 -17 2 -20 -20 -20 -20 -20 -20 -20 -20 -20 -6 -20 -20 -20 -20 -20 -20 -20 -20 -20 -20
18 -8 23 26 18 19 15 15 15 16 20 22 23 14 12 9 17 9 7 -5 7 11 17 -4 -6 4 9 6 -6 -20 -20 -20 -20 -20 -20 -20 -5 -19 3 -20 -20 -20 -17 -7 -7 -20 -3
16 18 11 14 19 16 16 20 20 17 17 21 24 21 16 23 12 -13 2 6 -3 13 9 -1 14 0 -9 -10 11 13 1 -20 -19 -20 -20 8 3 16 -20 12 -20 -20 -20 7 1 -11 -20
16 17 8 -12 5 21 21 23 26 27 21 23 28 27 20 35 14 -5 -9 12 -1 8 7 5 16 -1 -20 0 10 12 9 -18 -20 -20 -20 -20 -6 -5 8 -6 -19 -20 -20 -12 14 -3 -20
12 3 -20 8 -10 7 15 24 29 32 30 29 30 20 23 33 25 5 -4 21 4 10 -4 -8 22 18 14 5 6 1 -19 -20 -20 -20 -10 2 -19 -7 1 1 -17 -20 -18 -20 -20 -16 -20
-7 19 -8 -14 21 10 13 17 27 28 33 34 36 29 27 29 29 5 12 12 -13 -14 11 8 3 3 -20 -20 -20 -20 -20 -20 -20 -20 -20 -19 -17 -20 3 -20 -20 -20 -20 -20 -20 -20 -20

GFSGBSN_prec_radar_069.txt.gz
Reflectivity
7 3 4 -17 -20 -18 -5 -9 -19 -6 -8 -20 -20 -20 -20 -20 -20 -20 -20 -20 -20 -20 -20 -20 -20 -20 -20 -20 -20 -20 -20 -20 -20 -20 -20 -20 -20 -20 -20 -20 -20 -20 -20 -20 -20 -20 -20
13 12 12 14 9 16 12 5 -19 -0 -13 -6 -20 -20 -20 -20 -20 -20 -20 -20 -20 -20 -20 -20 -20 -20 -20 -20 -20 -20 -20 -20 -20 -20 -20 -20 -20 -20 -20 -20 -20 -20 -20 -20 -20 -20 -20
11 17 14 9 10 14 11 3 5 5 2 -20 -20 -20 -20 -20 -20 -20 -20 -20 -20 -20 -20 -20 -20 -0 -20 -20 -20 -20 -20 -20 -20 -20 -20 -20 -20 -20 -20 -20 -20 -20 -20 -20 -20 -20 -20
-1 11 12 5 10 8 11 12 9 8 -11 2 -20 -20 -20 -20 -20 -20 -20 -20 -20 -20 -20 -20 -19 -20 -20 -20 -19 -20 -20 -20 -20 -20 -20 -20 -20 -20 -20 -20 -20 -20 -20 -20 -20 -20 -20
10 16 9 5 9 16 12 10 7 8 6 -6 -20 -13 -20 -20 -20 -20 -20 -20 -20 -20 -20 -12 -12 -20 -20 -20 14 -18 -20 -17 -11 -20 -20 -20 -20 -20 -20 -20 -20 -20 -20 -20 -20 -20 -20
-2 8 10 12 13 10 13 13 6 10 -7 -17 -11 9 -20 -20 -20 -20 -20 -20 -20 -20 -20 -20 -5 -20 -20 -19 13 17 -20 -20 -2 -20 -20 -20 -20 -20 -20 -20 -20 -20 -20 -20 -20 -20 -20
12 -6 11 10 13 11 12 16 11 -2 -20 -20 14 -20 -20 -20 -14 -20 -20 -20 -20 -20 -20 -20 -20 -20 -20 -13 13 14 -15 8 -20 -20 -20 -20 -20 -20 -20 -20 -20 -20 -20 -20 -20 -20 -20
9 15 11 11 13 13 16 17 7 12 13 -9 -20 -20 -20 -20 -20 -20 -20 -20 -17 -8 -16 -20 -20 -15 17 12 -1 2 -20 -3 -20 -20 -20 -20 -20 -7 -10 -20 -20 -20 -20 -20 -20 -20 -20
13 -2 15 13 13 14 13 0 -19 12 -20 -20 -5 -10 -20 -20 -20 -20 -20 -20 -20 -20 1 4 5 -13 8 17 -16 -20 -20 -19 -15 -20 -20 -20 -20 -19 -14 -20 -20 -20 -20 -20 -20 -20 -20
12 -19 -11 4 10 11 4 -17 -4 3 -11 -20 13 -20 -20 -20 -20 -20 -20 -20 -20 -20 -14 -8 26 -10 -12 -10 -20 12 13 -20 8 -17 -20 -20 -20 -20 -20 -20 -20 -20 -20 -20 -20 -20 -20
14 8 16 14 1 -3 10 -14 -18 -20 -2 -20 9 -20 -20 5 -20 -20 -20 -20 -20 -20 -20 -20 10 -14 -20 -20 -18 3 11 -20 -20 1 -4 -20 -20 -20 -20 -20 -20 -20 -20 -20 -20 -20 -20
10 11 4 13 8 8 11 11 10 -20 1 -0 -20 -20 -7 -13 -17 -20 -20 -20 -20 -14 -20 -20 -20 -20 -20 -20 -20 9 -18 -12 -16 11 29 5 -20 -20 -20 -20 -20 -20 -20 -20 -20 -20 -20
-5 9 -20 -4 -0 14 10 8 -4 -20 -9 -18 -20 -20 8 0 -16 -20 -20 -20 -17 -11 -20 -20 -20 -20 -1 -20 -20 -19 -1 -20 -9 3 10 7 -7 -20 -20 -20 -20 -20 -20 -20 -20 -20 -20
13 -15 10 14 11 -2 7 14 -16 -17 -20 -20 8 -7 -19 9 -20 -20 -20 -20 0 -20 -20 -20 -20 -20 -8 -20 -20 -20 -20 -8 -19 6 -0 18 15 -1 -20 -20 -20 -20 -20 -20 -20 -20 -20
12 0 -20 8 -20 -16 10 14 5 -20 -20 -20 17 -20 -19 -19 15 2 -20 -20 -20 -20 -20 -20 -20 -19 5 -20 -20 -20 -20 -19 -20 -20 -4 9 8 3 -4 -7 -11 -20 -20 -19 -20 -20 -20
15 10 15 -20 20 20 19 -6 11 -20 -20 18 12 5 -6 -20 -17 19 16 -20 -20 -20 -20 -20 -20 -20 -9 -9 -20 -20 -20 -20 -20 -20 -20 -5 7 15 -10 -20 -20 -20 -20 -20 -20 -20 -20
-20 21 -20 2 17 2 -10 10 -20 -20 -20 15 -18 12 0 -2 20 30 15 -20 -20 -20 -20 -20 -20 -20 -20 -19 -15 -20 -20 -20 -20 -20 -20 -20 -20 11 4 -12 -20 -20 -20 -20 -20 -20 -20
7 -20 9 20 -20 -20 -20 -20 -20 -20 -2 16 17 20 -5 18 13 35 13 -20 -20 -20 -20 -20 -20 -20 -20 -20 -17 -20 -20 -20 -9 -20 -20 -20 -20 -20 -20 -19 -3 -16 -20 -20 -20 -20 -20
14 6 -19 16 16 -6 -17 -20 -20 -1 3 8 17 21 6 10 20 13 26 13 -20 -20 -20 -20 -20 -20 -20 -20 -20 -20 -20 -20 -20 -16 10 -20 -20 -20 -20 -19 -20 -20 -20 -20 -20 -20 -20
-2 11 14 8 8 10 -20 -18 -20 21 -2 20 24 4 25 32 14 -10 -15 -16 -20 -20 -20 -20 -20 -20 -20 -20 -20 -20 -20 -20 -20 -20 -20 -14 -16 -18 -14 -14 -20 -20 -20 -20 -20 -20 -20
6 10 -3 -14 11 -20 -12 -4 -18 -10 -11 17 22 17 -1 13 10 25 -20 5 -20 -20 -20 -20 -20 -20 -20 -20 -20 -20 -20 -20 -20 -20 -20 -20 -20 -20 -20 -20 -20 -20 -20 -20 -20 -20 -20
-3 -3 12 -10 -20 -20 -20 14 -20 15 7 20 13 12 18 3 21 7 9 12 -20 -20 -20 -20 -20 -20 -20 -20 -20 -20 -20 -20 -20 -20 -20 -20 -20 -8 -20 -20 -20 -20 -20 -20 -20 -20 -20
11 3 -20 -20 -20 -20 -20 -18 -20 -10 20 17 10 14 28 -18 11 28 20 15 -20 -20 -20 -20 -20 -20 -20 -20 -19 -20 -20 -20 -20 -20 -20 -20 9 -12 -20 -20 -20 -20 -20 -20 -20 -20 -20
20 13 -13 -20 12 1 15 20 17 7 13 7 22 24 24 13 29 -7 21 15 -20 -20 -20 -1 -4 -20 -20 4 -20 -20 -20 -20 -20 -20 -20 -20 -19 -9 7 -7 -20 -20 -20 -20 -20 -20 -20
2 15 16 19 17 16 18 19 22 17 13 13 18 25 31 5 -17 18 19 -13 -20 -20 15 -17 1 16 22 -8 8 -13 -20 -20 -20 -20 -20 -20 -20 -19 -13 -3 -20 -20 -20 -20 -20 -20 -20
7 -7 5 6 13 19 25 27 30 13 14 19 12 18 32 27 3 12 17 26 -18 6 -7 -20 20 29 18 12 17 7 -17 -20 -20 -18 -20 -20 -20 -1 8 -20 -20 -20 -20 -20 -20 -20 -20
-1 12 13 -11 2 16 13 26 25 20 13 21 21 20 22 27 19 -10 -0 3 -16 -7 17 12 27 32 20 16 10 9 -19 -8 -20 -20 -20 5 12 -5 14 -7 -20 -20 -20 -20 -20 -20 -20
2 -2 -14 -1 12 14 10 15 28 20 17 21 25 16 15 30 12 16 -10 15 25 10 18 12 27 32 29 6 13 -15 -4 -20 -20 -9 -12 -20 -20 1 -5 5 -13 -20 -20 -14 -20 -20 -20
9 12 16 7 -9 7 8 12 23 27 27 27 27 21 17 20 24 -15 -20 0 4 -1 21 31 13 7 2 -20 -20 -20 -20 -20 -20 -20 -20 -7 -19 -20 -20 -20 -20 -20 12 -20 -20 -20 -20